Weather in Frolovskoye

Russia / Kaluga Oblast     54°03′38″N   35°42′10″E
temp.,
°C
wind,
m/s
gust,
m/s
humid.,
%
clouds,
%
prec.,
mm/h
press.,
hPa
HPBL,
m
26 july, mon
mon2600:00+18sse115996 0.0 102214
03:00+17sse2260100 0.0 102320
06:00+16s2365100 0.0 102372
09:00+20ssw236457 0.0 1023292
12:00+25ssw23494 0.0 10231432
15:00+23s2463100 0.1 1022267
18:00+24sse22537 0.0 1022412
21:00+20s2269100 0.0 102233
27 july, tue
tue2700:00+17sw22791 0.0 102314
03:00+15sw11865 0.0 102310
06:00+16wnw01852 0.1 102311
09:00+22sw226234 0.1 1022396
12:00+26wsw23485 0.0 10221181
15:00+27nw234685 0.0 10201681
18:00+25sse355847 0.0 1019326
21:00+19s227220 0.1 101937
28 july, wed
wed2800:00+17se2286100 0.3 101930
03:00+16sse2482100 0.4 101870
06:00+17se2482100 0.0 101780
09:00+19se2674100 0.0 1016176
12:00+20ne1177100 0.1 101559
15:00+18se51193100 2.1 1013432
18:00+23s597299 0.0 10111171
21:00+18ssw3796100 0.2 1010186
29 july, thu
thu2900:00+18wsw4109710 1.5 1010236
03:00+17w39960 1.5 1009202
06:00+17wsw38966 0.1 1010198
09:00+22wnw59715 0.2 1009580
12:00+26wnw6851100 0.0 10101556
15:00+25w4855100 0.0 1009838
18:00+26wnw59510 0.0 10091243
21:00+20w37700 0.0 100998
30 july, fri
fri3000:00+18w37745 0.0 1010120
03:00+17w22815 0.0 101126
06:00+17wsw227993 0.0 101133
09:00+23w236021 0.0 1012341
12:00+28sw344563 0.0 10111528
15:00+27s2553100 0.0 10101127
18:00+23ssw24755 0.0 1009123
21:00+19e0192100 5.7 100911